Location: Observatoire
(46.1952°N, 5.3391°E)
Time: 21:44:01
(UTC+01:00)

Tiros 1 despin weight - Visible Passes

Search period start: 17 February 2026 00:00
Search period end: 27 February 2026 00:00
Orbit: 557 x 594 km, 48.2° (Epoch: 16 February)

Date Brightness Start Highest point End Pass type
(mag) Time Alt. Az. Time Alt. Az. Time Alt. Az.
17 Feb ? 19:47:32 10° WNW 19:51:46 82° NNE 19:52:53 47° E visible
17 Feb ? 21:28:16 10° W 21:29:04 15° W 21:29:04 15° W visible
18 Feb ? 19:50:03 10° WNW 19:54:16 83° SSW 19:55:27 46° ESE visible
18 Feb ? 21:31:00 10° W 21:31:38 13° W 21:31:38 13° W visible
19 Feb ? 19:52:34 10° WNW 19:56:45 65° SSW 19:58:04 40° SE visible
19 Feb ? 21:33:57 10° W 21:34:15 11° W 21:34:15 11° W visible
20 Feb ? 19:55:07 10° WNW 19:59:10 48° SSW 20:00:45 31° SSE visible
21 Feb ? 19:57:42 10° W 20:01:32 34° SSW 20:03:32 22° SSE visible
22 Feb ? 20:00:25 10° W 20:03:50 24° SW 20:06:26 14° S visible
23 Feb ? 20:03:21 10° W 20:06:05 17° SW 20:08:49 10° S visible
24 Feb ? 20:07:04 10° WSW 20:08:16 11° SW 20:09:30 10° SSW visible
